CST,Max TemperatureF,Mean TemperatureF,Min TemperatureF,Max Dew PointF,MeanDew PointF,Min DewpointF,Max Humidity, Mean Humidity, Min Humidity, Max Sea Level PressureIn, Mean Sea Level PressureIn, Min Sea Level PressureIn, Max VisibilityMiles, Mean VisibilityMiles, Min VisibilityMiles, Max Wind SpeedMPH, Mean Wind SpeedMPH, Max Gust SpeedMPH,PrecipitationIn, CloudCover, Events, WindDirDegrees
2013-10-1,82,73,64,68,66,62,100,87,46,30.03,29.96,29.78,12,6,1,12,6,,1.65,6,Rain,36
2013-10-2,80,71,62,70,66,61,100,87,52,30.04,29.94,29.77,12,6,1,10,4,,0.08,6,Rain-Thunderstorm,230
2013-10-3,81,72,63,70,66,62,100,89,56,30.08,29.95,29.80,12,7,3,12,5,,0.20,6,Fog-Rain,281
2013-10-4,74,69,64,68,66,62,100,89,73,30.06,29.98,29.81,12,6,0,8,5,,0.16,6,Fog-Rain,360
2013-10-5,81,72,63,72,66,62,100,85,56,30.06,29.96,29.77,12,6,1,13,5,,2.13,6,Rain-Thunderstorm,247
2013-10-6,81,72,63,70,65,63,100,86,59,30.08,29.97,29.80,12,8,5,9,5,,0.08,6,Rain-Thunderstorm,46
2013-10-7,86,75,64,74,64,34,100,78,25,30.07,29.98,29.81,12,6,1,12,5,,0.24,6,Fog-Rain-Thunderstorm,68
2013-10-8,83,75,67,70,66,62,100,79,46,30.05,29.97,29.80,12,8,3,16,6,,0.00,5,Fog-Rain,118
2013-10-9,87,76,66,68,63,59,94,68,32,30.05,29.95,29.76,12,8,6,20,8,,0.02,4,Rain,77
2013-10-10,85,75,65,71,66,60,100,80,51,30.05,29.96,29.78,12,6,0,12,5,23,0.08,6,Fog-Rain-Thunderstorm,276
2013-10-11,84,74,64,70,65,61,100,84,45,30.01,29.94,29.79,12,6,0,12,5,,0.31,6,Fog-Rain-Thunderstorm,85
2013-10-12,81,72,64,70,64,59,94,79,42,30.04,29.95,29.78,12,8,5,12,6,,0.20,5,Fog-Rain,17
2013-10-13,81,72,63,70,63,60,100,75,46,30.03,29.94,29.75,12,8,6,102,10,,0.00,5,,70
2013-10-14,81,72,63,70,63,57,100,74,41,30.03,29.95,29.79,12,7,2,16,7,,0.00,5,Fog,256
2013-10-15,78,72,65,68,66,34,100,85,30,30.07,29.97,29.79,12,6,2,9,4,,0.01,6,Fog-Rain,249
2013-10-16,80,73,66,69,66,64,100,91,56,30.09,30.00,29.83,12,6,1,15,5,,1.34,6,Rain-Thunderstorm,278
2013-10-17,78,70,62,68,65,61,100,83,56,30.09,29.99,29.78,12,8,2,12,4,,0.00,5,Fog,240
2013-10-18,84,74,65,70,65,36,100,84,27,30.05,29.96,29.81,12,4,0,13,4,,0.59,5,Fog-Rain-Thunderstorm,213
2013-10-19,81,72,64,70,65,61,100,84,47,30.04,29.95,29.80,12,7,1,15,6,,1.06,7,Fog-Rain-Thunderstorm,300
2013-10-20,82,72,62,69,65,59,100,81,44,30.07,29.97,29.78,12,8,2,12,5,,1.26,6,Rain-Thunderstorm,110
2013-10-21,86,74,63,70,65,57,100,86,48,30.09,30.00,29.84,12,6,0,12,5,,0.20,6,Fog-Rain-Thunderstorm,101
2013-10-22,84,75,66,70,65,36,100,86,27,30.03,29.95,29.79,12,4,0,9,4,,1.06,6,Fog-Rain-Thunderstorm,93
2013-10-23,81,72,63,70,65,36,100,85,24,30.02,29.92,29.75,12,6,0,15,5,,0.98,6,Fog-Rain-Thunderstorm,316
2013-10-24,79,71,63,70,66,36,100,87,28,30.03,29.94,29.78,12,7,4,13,3,,0.08,6,Fog-Rain,359
2013-10-25,84,74,65,70,67,63,100,85,47,30.06,29.96,29.78,12,7,0,13,4,,4.49,6,Fog-Rain-Thunderstorm,41
2013-10-26,81,73,65,70,67,63,100,90,53,30.05,29.96,29.78,16,6,0,12,4,,0.87,7,Fog-Rain,245
2013-10-27,80,72,64,70,66,62,100,88,54,30.06,29.97,29.78,12,5,0,10,6,,0.00,6,Fog-Rain,234
2013-10-28,80,72,65,84,68,64,100,91,65,30.05,29.96,29.80,12,5,0,14,4,,0.94,5,Fog-Rain-Thunderstorm,228
2013-10-29,84,75,66,72,66,61,100,79,48,30.07,29.97,29.76,12,8,4,20,8,,0.08,5,Fog-Rain,49
2013-10-30,83,76,68,70,66,61,100,76,48,30.06,29.96,29.77,12,8,5,12,7,,0.00,4,Fog-Rain,176
2013-10-31,82,72,63,72,67,63,100,84,57,30.06,29.96,29.80,12,8,5,12,5,,0.12,4,Fog-Rain,236